Find Starlink 30905

NORAD ID: 58356 Int'l Des: 2023-177 Owner: SPXS Country: US Constellation: starlink operational
LEOCIRCULAR

現在のビュー

3D地球を読み込み中...

About Starlink 30905

Starlink 30905 (NORAD 58356) is a starlink constellation satellite (v2 mini) launched Nov 18, 2023 by SPXS of US. It operates in LEO, CIRCULAR orbit with a mass of 730.00 kg.

Starlink 30905について

説明を読み込み中...

次回通過

Passes for default location (London). Set your location on the main map for personalized predictions.

高度履歴

Loading altitude history...

軌道要素

1 58356U 23177F 26171.24433569 .00000095 00000-0 12984-4 0 9992
2 58356 43.0018 131.2435 0001229 269.0908 90.9803 15.27573095143856
Epoch: Jun 20, 2026 • Age: 39 hours

現在のステータス

高度 483.0 km
速度 7.63 km/s
衛星直下点 22.47°N, 80.59°W
打ち上げ日 Nov 18, 2023
運用期間 2.5 years
タイプ internet

技術仕様

分類 Payload
質量 730.00 kg
乾燥質量 700.00 kg
総質量 730.00 kg
長さ 0.30 m
直径 4.10 m
スパン 29.00 m
形状 Box + pan
製造者 SPXS
バスタイプ Starlink V2M
フェーズステータス In Orbit
所有者/国 SPXS/US

Most Searched